This is the latest recevied weather packets stored in our database for station/object KP4OZ. If no packets are shown the sender has not sent any weather packets the latest 10 day(s).
| Time | Temp. | Humidity | Pressure | Rain* | Wind** | Luminosity | Snow |
|---|---|---|---|---|---|---|---|
| 1777647868 | 29.44° C | 71% | 1015.6 hPa | 0 mm | - | - | - |
| 1777647564 | 30° C | 70% | 1015.6 hPa | 0 mm | - | - | - |
| 1777647261 | 30° C | 69% | 1015.6 hPa | 0 mm | - | - | - |
| 1777646959 | 29.44° C | 69% | 1015.7 hPa | 0 mm | - | - | - |
| 1777646655 | 30° C | 69% | 1015.7 hPa | 0 mm | - | - | - |
| 1777646350 | 30.56° C | 65% | 1015.8 hPa | 0 mm | - | - | - |
| 1777646047 | 30.56° C | 67% | 1015.8 hPa | 0 mm | - | - | - |
| 1777645744 | 30° C | 68% | 1015.9 hPa | 0 mm | - | - | - |
| 1777645441 | 30° C | 68% | 1015.9 hPa | 0 mm | - | - | - |
| 1777645136 | 30° C | 70% | 1015.8 hPa | 0 mm | - | - | - |
| 1777644833 | 30° C | 70% | 1016.1 hPa | 0 mm | - | - | - |
| 1777644531 | 30° C | 71% | 1015.8 hPa | 0 mm | - | - | - |
| 1777644227 | 30° C | 70% | 1015.8 hPa | 0 mm | - | - | - |
| 1777643923 | 29.44° C | 71% | 1015.7 hPa | 0 mm | - | - | - |
| 1777643621 | 28.89° C | 72% | 1015.7 hPa | 0 mm | - | - | - |
| 1777643318 | 28.89° C | 72% | 1015.8 hPa | 0 mm | - | - | - |
| 1777643014 | 28.89° C | 73% | 1015.9 hPa | 0 mm | - | - | - |
| 1777642710 | 29.44° C | 70% | 1015.7 hPa | 0 mm | - | - | - |
| 1777642408 | 29.44° C | 70% | 1015.7 hPa | 0 mm | - | - | - |
| 1777642104 | 29.44° C | 68% | 1015.6 hPa | 0 mm | - | - | - |
| 1777641800 | 30° C | 67% | 1015.6 hPa | 0 mm | - | - | - |
| 1777641495 | 30° C | 66% | 1015.7 hPa | 0 mm | - | - | - |
| 1777641191 | 30° C | 68% | 1015.8 hPa | 0 mm | - | - | - |
| 1777640887 | 29.44° C | 69% | 1015.6 hPa | 0 mm | - | - | - |
| 1777640585 | 29.44° C | 69% | 1015.4 hPa | 0 mm | - | - | - |
* Rain latest hour (hover to see other rain measurements)
** Current wind speed in m/s (hover to see current wind gust speed)